TimeEDT,TemperatureF,Dew PointF,Humidity,Sea Level PressureIn,VisibilityMPH,Wind Direction,Wind SpeedMPH,Gust SpeedMPH,PrecipitationIn,Events,Conditions,WindDirDegrees,DateUTC
12:14 AM,44.6,35.6,71,29.67,10.0,South,9.2,-,N/A,,Clear,190,2014-03-22 04:14:00
12:33 AM,46.4,37.4,71,29.66,10.0,South,11.5,-,N/A,,Clear,190,2014-03-22 04:33:00
12:54 AM,48.9,36.9,63,29.65,10.0,SSW,10.4,-,N/A,,Clear,200,2014-03-22 04:54:00
1:13 AM,51.8,35.6,54,29.64,10.0,SSW,15.0,-,N/A,,Clear,200,2014-03-22 05:13:00
1:33 AM,53.6,35.6,51,29.64,10.0,SSW,13.8,-,N/A,,Partly Cloudy,200,2014-03-22 05:33:00
1:54 AM,52.9,36.0,53,29.63,10.0,SSW,13.8,-,N/A,,Scattered Clouds,200,2014-03-22 05:54:00
2:10 AM,53.6,35.6,51,29.64,10.0,SSW,17.3,-,N/A,,Mostly Cloudy,210,2014-03-22 06:10:00
2:34 AM,37.4,32.0,81,29.72,10.0,West,11.5,-,N/A,,Mostly Cloudy,280,2014-03-22 06:34:00
2:53 AM,35.6,32.0,87,29.73,10.0,WNW,9.2,-,N/A,,Mostly Cloudy,290,2014-03-22 06:53:00
3:13 AM,35.6,33.8,93,-9999,10.0,WNW,10.4,-,N/A,Rain,Light Rain,290,2014-03-22 07:13:00
3:34 AM,35.6,33.8,93,29.70,10.0,WNW,4.6,-,N/A,Rain,Light Rain,290,2014-03-22 07:34:00
3:53 AM,37.4,33.8,87,29.70,6.0,Calm,Calm,-,N/A,Rain,Light Rain,0,2014-03-22 07:53:00
4:14 AM,35.6,33.8,93,29.71,9.0,SSW,4.6,-,N/A,,Overcast,210,2014-03-22 08:14:00
4:33 AM,35.6,33.8,93,29.73,10.0,SSW,8.1,-,N/A,,Scattered Clouds,210,2014-03-22 08:33:00
4:54 AM,35.6,33.8,93,29.73,10.0,SSW,6.9,-,N/A,,Clear,210,2014-03-22 08:54:00
5:14 AM,37.4,33.8,87,29.75,10.0,SSW,9.2,-,N/A,,Clear,210,2014-03-22 09:14:00
5:33 AM,39.2,35.6,87,29.76,10.0,SW,17.3,-,N/A,,Clear,230,2014-03-22 09:33:00
5:54 AM,39.9,36.0,86,29.78,10.0,West,15.0,-,N/A,,Clear,260,2014-03-22 09:54:00
6:14 AM,39.2,35.6,87,29.80,9.0,West,16.1,-,N/A,,Clear,260,2014-03-22 10:14:00
6:28 AM,39.2,35.6,87,29.81,7.0,West,13.8,-,N/A,,Scattered Clouds,270,2014-03-22 10:28:00
6:51 AM,39.2,37.4,93,29.83,8.0,West,13.8,-,N/A,,Overcast,280,2014-03-22 10:51:00
7:12 AM,39.2,35.6,87,29.85,8.0,West,13.8,-,N/A,,Mostly Cloudy,280,2014-03-22 11:12:00
7:34 AM,39.2,35.6,87,29.88,9.0,West,15.0,-,N/A,,Overcast,280,2014-03-22 11:34:00
7:53 AM,39.2,35.6,87,29.89,9.0,WNW,15.0,-,N/A,,Overcast,290,2014-03-22 11:53:00
8:13 AM,39.2,35.6,87,29.91,10.0,WNW,13.8,-,N/A,,Overcast,290,2014-03-22 12:13:00
8:34 AM,37.4,33.8,87,29.93,10.0,WNW,13.8,-,N/A,,Overcast,290,2014-03-22 12:34:00
8:51 AM,37.9,34.0,86,29.94,10.0,WNW,10.4,-,N/A,,Mostly Cloudy,300,2014-03-22 12:51:00
9:14 AM,37.4,33.8,87,29.96,10.0,WNW,10.4,-,N/A,,Scattered Clouds,290,2014-03-22 13:14:00
9:34 AM,37.4,33.8,87,29.98,10.0,WNW,9.2,-,N/A,,Overcast,300,2014-03-22 13:34:00
9:54 AM,37.4,33.8,87,29.99,10.0,WNW,8.1,-,N/A,,Overcast,300,2014-03-22 13:54:00
10:13 AM,37.4,33.8,87,30.00,10.0,NW,9.2,-,N/A,,Overcast,310,2014-03-22 14:13:00
10:34 AM,37.4,33.8,87,30.01,10.0,Variable,5.8,-,N/A,,Overcast,0,2014-03-22 14:34:00
10:54 AM,37.9,32.9,82,30.02,10.0,Variable,6.9,-,N/A,,Overcast,0,2014-03-22 14:54:00
11:13 AM,37.4,33.8,87,30.03,10.0,West,8.1,-,N/A,,Overcast,280,2014-03-22 15:13:00
11:34 AM,37.4,33.8,87,30.04,10.0,WNW,8.1,-,N/A,,Overcast,290,2014-03-22 15:34:00
11:53 AM,37.4,32.0,81,30.05,10.0,NW,8.1,-,N/A,,Overcast,320,2014-03-22 15:53:00
12:14 PM,37.4,32.0,81,30.06,10.0,NW,9.2,-,N/A,,Overcast,310,2014-03-22 16:14:00
12:33 PM,39.2,32.0,75,30.06,10.0,NW,8.1,-,N/A,,Overcast,310,2014-03-22 16:33:00
12:53 PM,39.9,32.0,73,30.07,10.0,NW,8.1,-,N/A,,Overcast,320,2014-03-22 16:53:00
1:03 PM,39.2,32.0,75,30.07,10.0,North,6.9,-,N/A,,Overcast,350,2014-03-22 17:03:00
1:34 PM,39.2,32.0,75,30.07,10.0,Variable,6.9,-,N/A,,Overcast,0,2014-03-22 17:34:00
1:53 PM,39.9,32.0,73,30.08,10.0,Variable,5.8,-,N/A,,Overcast,0,2014-03-22 17:53:00
2:14 PM,39.2,30.2,70,30.07,10.0,North,6.9,-,N/A,,Overcast,350,2014-03-22 18:14:00
2:23 PM,37.4,30.2,75,30.07,10.0,Variable,5.8,-,N/A,,Overcast,0,2014-03-22 18:23:00
2:54 PM,39.2,32.0,75,30.08,10.0,NW,8.1,-,N/A,,Overcast,310,2014-03-22 18:54:00
3:13 PM,39.2,32.0,75,30.08,10.0,NW,6.9,-,N/A,,Overcast,310,2014-03-22 19:13:00
3:34 PM,39.2,32.0,75,30.08,10.0,NW,8.1,-,N/A,,Overcast,310,2014-03-22 19:34:00
3:54 PM,39.2,32.0,75,30.08,10.0,Variable,6.9,-,N/A,,Overcast,0,2014-03-22 19:54:00
4:13 PM,39.2,32.0,75,30.08,10.0,NNW,6.9,-,N/A,,Overcast,340,2014-03-22 20:13:00
4:34 PM,39.2,32.0,75,30.08,10.0,Variable,6.9,-,N/A,,Overcast,0,2014-03-22 20:34:00
4:54 PM,37.9,32.0,79,30.08,10.0,NNW,6.9,-,N/A,,Overcast,340,2014-03-22 20:54:00
5:13 PM,37.4,32.0,81,30.09,10.0,NNW,5.8,-,N/A,,Overcast,330,2014-03-22 21:13:00
5:34 PM,37.4,30.2,75,30.09,10.0,NW,6.9,-,N/A,,Overcast,310,2014-03-22 21:34:00
5:53 PM,37.9,32.0,79,30.09,10.0,NNW,6.9,-,N/A,,Overcast,330,2014-03-22 21:53:00
6:13 PM,39.2,30.2,70,30.10,10.0,NW,6.9,-,N/A,,Overcast,310,2014-03-22 22:13:00
6:34 PM,39.2,30.2,70,30.10,10.0,West,5.8,-,N/A,,Overcast,280,2014-03-22 22:34:00
6:53 PM,38.8,30.0,71,30.11,10.0,West,6.9,-,N/A,,Overcast,270,2014-03-22 22:53:00
7:13 PM,39.2,30.2,70,30.11,10.0,West,4.6,-,N/A,,Overcast,260,2014-03-22 23:13:00
7:34 PM,39.2,32.0,75,30.12,10.0,WSW,3.5,-,N/A,,Overcast,250,2014-03-22 23:34:00
7:53 PM,37.4,30.2,75,30.12,10.0,WSW,3.5,-,N/A,,Overcast,240,2014-03-22 23:53:00
8:14 PM,39.2,30.2,70,30.12,10.0,West,3.5,-,N/A,,Overcast,260,2014-03-23 00:14:00
8:34 PM,39.2,30.2,70,30.13,10.0,West,4.6,-,N/A,,Overcast,260,2014-03-23 00:34:00
8:53 PM,38.8,31.1,74,30.13,10.0,West,4.6,-,N/A,,Overcast,260,2014-03-23 00:53:00
9:14 PM,39.2,30.2,70,30.14,10.0,West,3.5,-,N/A,,Overcast,260,2014-03-23 01:14:00
9:33 PM,39.2,30.2,70,30.14,10.0,West,4.6,-,N/A,,Overcast,270,2014-03-23 01:33:00
9:53 PM,37.9,30.0,73,30.14,10.0,West,6.9,-,N/A,,Overcast,270,2014-03-23 01:53:00
10:14 PM,37.4,30.2,75,30.14,10.0,WNW,8.1,-,N/A,,Overcast,290,2014-03-23 02:14:00
10:33 PM,37.4,30.2,75,30.15,10.0,WNW,12.7,-,N/A,,Overcast,290,2014-03-23 02:33:00
10:54 PM,35.6,30.2,81,30.15,10.0,WNW,8.1,-,N/A,,Overcast,290,2014-03-23 02:54:00
11:13 PM,35.6,30.2,81,30.15,10.0,NNW,8.1,-,N/A,,Overcast,330,2014-03-23 03:13:00
11:33 PM,35.6,30.2,81,30.17,10.0,Variable,6.9,-,N/A,,Overcast,0,2014-03-23 03:33:00
11:54 PM,33.8,28.4,81,30.17,10.0,North,6.9,-,N/A,,Mostly Cloudy,350,2014-03-23 03:54:00